Wetbulb
66.00 65.31 64.38 62.62 61.47 60.85 60.60 59.55 59.59 59.25 57.56 54.40 53.05 47.17 46.17 45.44 46.70 46.22 43.59 41.83 41.18 41.16 41.48 43.64 44.62 46.11 45.25 45.37 44.91 43.99 42.33 41.30 38.11 40.30 41.98 43.15 43.05 43.10 42.23 42.19 41.33 40.30 40.11
65.98 65.77 62.53 61.51 60.64 59.33 58.95 58.67 58.11 54.73 51.27 49.12 47.22 46.43 46.60 46.15 44.65 42.75 41.26 41.57 40.62 40.93 43.06 44.81 44.96 44.67 45.36 44.91 44.12 43.11 42.34 42.64 40.37 38.41 40.68 40.68 41.79 42.31 42.27 41.16 39.50 39.14 38.96
64.41 63.97 60.82 59.48 58.54 54.28 50.86 49.55 47.77 47.21 46.38 46.00 46.45 45.86 45.65 43.38 41.68 41.89 41.88 41.95 42.91 44.37 44.98 45.33 44.84 44.08 44.43 44.22 43.64 43.12 42.99 41.94 42.01 39.94 39.02 41.31 41.44 41.31 40.29 40.25 39.58 39.89 38.39
60.20 56.80 54.26 52.67 50.68 48.90 47.65 46.70 45.90 46.03 46.26 46.03 45.58 43.17 43.29 42.30 42.07 42.07 42.60 43.68 44.32 44.05 45.57 45.35 44.68 44.59 43.58 43.92 43.53 43.47 42.97 42.18 41.37 39.94 39.07 39.04 39.60 40.51 39.19 36.65 36.41 38.35 36.69
53.14 51.39 50.18 49.55 48.79 47.87 47.68 46.61 46.65 46.28 45.53 43.94 43.10 42.82 42.90 42.60 42.92 42.98 43.14 42.86 43.20 43.38 44.75 44.76 45.35 44.73 42.11 41.87 42.44 42.39 42.19 41.14 40.17 38.73 37.64 37.72 36.70 36.50 35.30 36.75 34.88 35.77 36.27
49.88 48.59 48.67 48.33 47.45 46.88 46.56 45.34 44.87 44.40 43.82 43.46 43.11 42.44 41.80 42.25 39.68 39.21 40.12 41.01 42.46 43.11 43.83 44.36 45.46 42.67 42.29 39.06 38.39 37.97 39.21 39.61 38.59 37.65 36.96 35.17 35.61 35.71 36.68 35.28 34.33 32.27 30.04
49.40 49.09 48.94 48.73 47.84 48.03 47.51 46.08 45.12 44.80 43.51 41.93 41.14 41.25 41.36 42.99 39.43 39.23 38.34 43.22 42.84 42.53 42.55 42.99 42.97 43.24 41.54 43.52 39.40 36.84 36.32 35.58 32.97 37.60 35.88 35.56 34.82 35.72 35.88 33.92 33.23 32.27 31.32
51.46 50.86 50.14 48.89 47.65 47.27 46.78 46.32 44.58 42.75 42.03 42.43 42.73 43.66 44.37 44.94 40.52 39.05 36.48 40.89 41.09 41.49 41.86 42.13 42.61 42.71 43.12 41.87 41.76 41.29 40.75 40.46 38.64 36.73 36.21 36.59 36.62 37.17 36.30 34.82 33.30 32.25 32.41
48.94 48.30 48.16 48.18 46.91 46.32 44.72 43.73 44.77 43.26 43.45 44.28 44.67 44.55 43.74 43.63 38.33 36.34 36.09 39.61 39.13 39.50 40.45 40.77 40.83 41.34 38.93 37.92 38.78 38.73 38.85 39.36 39.12 37.37 37.35 36.61 33.58 32.07 30.87 32.76 30.80 29.40 28.71
48.48 48.18 48.14 47.58 46.55 45.55 44.88 44.59 44.80 45.73 44.10 44.19 42.66 42.01 37.99 40.57 35.81 35.69 36.05 37.87 36.72 37.28 37.73 38.30 36.07 36.78 34.57 34.44 36.63 37.42 35.70 37.38 38.56 38.25 36.28 35.51 33.31 33.75 31.11 31.70 31.58 28.31 28.06
48.14 47.58 46.77 45.35 44.37 45.45 44.62 44.03 42.97 42.22 41.70 41.32 40.02 41.08 40.72 39.47 38.68 34.42 33.57 33.87 33.19 31.97 32.62 33.96 35.74 33.60 33.83 34.07 33.81 34.27 35.08 37.04 36.36 36.96 36.65 36.38 35.57 34.56 34.04 33.55 32.68 30.57 28.97
46.40 44.30 43.76 43.30 42.17 42.46 42.05 41.54 41.20 41.37 39.95 38.76 37.15 36.52 37.81 37.65 34.02 32.61 30.59 29.71 29.44 30.11 29.69 31.94 32.66 31.94 31.70 31.26 31.69 32.49 32.80 33.06 35.59 34.89 34.28 34.58 33.66 32.91 34.37 34.95 34.07 33.47 33.71
43.58 42.30 41.37 40.97 40.51 40.43 39.68 38.79 38.73 37.81 36.49 35.02 34.04 33.99 34.21 34.91 34.91 31.25 29.79 28.48 28.63 29.32 30.32 30.31 29.74 30.02 30.93 31.84 32.12 31.95 31.55 32.71 32.65 31.84 32.82 33.48 33.59 34.78 34.54 34.42 34.60 34.34 33.67
40.83 39.87 39.09 38.59 37.13 37.03 36.99 36.41 35.91 34.90 33.65 32.30 31.88 31.69 31.78 31.25 31.77 29.55 27.44 28.01 27.95 28.03 27.89 29.61 28.20 28.38 29.54 30.14 30.85 33.08 34.27 32.88 32.18 32.34 33.82 34.43 35.26 34.50 33.39 33.88 32.17 31.32 30.05
38.27 37.04 35.99 35.42 35.42 35.04 34.60 33.23 32.36 30.77 28.79 29.39 30.77 29.20 27.92 27.08 26.95 24.22 24.23 25.06 25.75 25.46 26.22 28.70 30.52 31.07 30.55 31.82 32.80 33.42 33.91 34.22 31.90 32.23 32.98 33.81 33.66 32.95 32.74 33.13 31.47 30.13 28.41
34.95 34.09 33.79 33.88 33.56 33.83 33.62 31.25 26.48 26.92 26.33 26.52 24.64 25.01 26.11 24.55 23.10 22.82 23.44 24.11 23.82 25.25 25.27 26.87 26.53 27.08 26.84 27.40 28.84 29.81 33.77 33.10 32.93 33.78 33.90 33.32 32.44 31.82 31.75 31.60 31.20 29.82 28.02
32.96 31.72 30.00 31.18 31.71 31.06 31.25 30.96 30.52 27.02 26.67 26.42 24.37 22.93 22.76 21.65 21.81 21.92 22.73 23.07 24.17 24.83 24.29 23.97 24.42 24.44 24.60 25.16 25.79 27.20 29.99 33.35 34.24 33.50 32.40 32.63 32.93 31.92 31.63 30.78 30.20 29.31 27.91
29.32 27.06 31.37 31.42 30.91 30.78 30.29 29.14 29.09 27.60 26.42 27.77 25.99 23.90 22.65 21.57 20.99 21.42 22.52 22.94 24.13 24.03 23.54 22.40 22.26 22.10 22.94 22.84 23.10 24.73 25.84 29.26 34.13 33.07 32.59 33.33 33.06 32.05 30.91 29.88 29.69 28.73 27.70
29.81 29.43 29.55 29.14 27.67 26.26 27.55 27.35 26.94 26.06 25.73 25.18 25.99 25.97 25.22 21.27 20.61 22.67 22.98 22.56 21.28 21.18 21.43 20.97 21.51 21.11 20.55 21.48 22.37 22.36 23.59 25.39 28.53 32.32 32.33 31.76 32.14 31.64 30.38 30.26 29.72 27.91 27.58
25.38 22.92 24.45 26.82 26.29 25.59 25.56 24.72 24.51 24.37 23.77 23.88 23.42 23.37 23.22 19.28 18.75 21.69 22.40 21.77 20.52 20.22 19.72 18.95 19.34 19.75 19.69 20.22 21.10 20.72 20.50 22.38 23.79 26.88 31.77 31.91 31.77 31.72 30.42 30.13 29.30 28.00 26.61
27.12 23.98 20.03 24.39 24.13 23.31 23.07 22.52 22.31 22.16 21.88 21.71 22.04 22.31 14.71 16.26 17.57 20.05 19.77 19.97 19.22 18.66 18.07 17.71 17.96 18.25 18.62 18.99 18.76 19.29 17.70 19.60 21.89 24.51 26.47 29.86 31.77 30.53 30.90 30.60 29.46 28.31 27.57
22.20 21.81 21.89 21.70 21.80 21.82 19.97 20.51 20.49 20.38 20.38 20.10 20.21 20.68 18.04 18.10 19.10 18.51 18.51 18.60 18.41 18.14 18.88 17.77 16.91 16.87 17.16 17.06 17.70 17.83 16.48 16.83 18.82 21.76 21.99 21.83 23.57 30.22 30.72 29.65 29.37 28.54 27.12
20.47 20.54 20.67 20.63 19.88 17.57 19.49 19.93 19.46 19.75 18.71 18.46 18.42 17.96 18.21 17.90 17.29 16.77 16.53 16.82 16.77 16.96 16.68 16.24 15.84 15.51 15.98 16.73 17.29 17.15 15.98 15.40 17.11 19.77 17.60 18.56 20.37 21.81 30.40 29.10 28.67 27.87 26.94
19.92 20.11 18.85 19.06 19.33 16.54 18.48 17.69 18.14 16.49 16.61 16.96 16.99 16.80 16.57 16.25 15.95 15.47 15.65 15.83 15.08 14.84 15.29 15.11 14.54 13.32 14.10 15.32 16.06 16.17 16.40 16.44 16.96 17.00 16.20 16.34 17.25 19.89 23.87 29.11 28.85 28.00 27.06
19.86 18.88 18.10 17.78 17.62 17.47 16.89 17.12 16.35 16.06 15.59 15.30 15.38 15.09 14.95 14.86 14.33 14.22 14.36 14.02 13.01 12.85 13.17 12.41 12.80 13.57 13.39 12.89 13.23 13.46 14.59 15.54 15.35 13.63 14.55 16.45 16.67 17.22 19.47 27.58 29.00 27.82 27.22
18.63 17.78 17.26 17.37 16.86 16.45 15.64 14.56 14.40 14.18 13.30 13.64 13.22 13.04 13.15 12.70 12.39 12.31 12.27 11.60 11.87 11.03 10.44 12.47 12.22 11.70 11.87 12.82 13.54 14.45 13.63 12.69 12.22 12.33 14.87 15.50 15.42 16.77 19.75 26.69 28.93 28.27 27.05
MSLP
1009.11 1010.10 1011.44 1012.52 1013.55 1014.23 1014.83 1015.41 1015.81 1016.24 1016.86 1017.74 1018.54 1019.35 1020.11 1020.64 1021.77 1022.72 1023.32 1023.57 1023.97 1024.19 1024.37 1024.10 1023.56 1023.21 1023.02 1022.93 1022.86 1022.65 1022.52 1022.46 1022.00 1021.57 1021.46 1021.43 1021.53 1021.50 1021.53 1021.87 1022.25 1022.36 1022.34
1008.43 1009.31 1011.22 1012.51 1013.45 1014.18 1014.79 1015.30 1015.77 1016.53 1017.28 1017.92 1018.73 1019.63 1020.08 1020.96 1021.92 1022.40 1023.30 1023.90 1024.21 1024.21 1024.05 1023.45 1022.96 1022.64 1022.53 1022.48 1022.53 1022.63 1022.21 1021.96 1021.77 1021.23 1021.08 1021.13 1021.03 1020.92 1020.96 1021.12 1021.46 1021.60 1021.53
1008.94 1009.93 1011.62 1012.81 1013.64 1014.59 1015.29 1015.89 1016.51 1017.15 1017.85 1018.54 1019.39 1019.98 1020.60 1021.45 1021.81 1022.34 1022.89 1023.29 1023.46 1023.15 1022.82 1022.37 1022.09 1022.01 1021.88 1021.80 1021.83 1021.74 1021.43 1021.13 1020.96 1020.74 1020.35 1020.40 1020.22 1020.25 1020.24 1020.37 1020.65 1020.64 1020.71
1010.68 1011.81 1012.81 1013.88 1014.72 1015.38 1016.12 1016.79 1017.33 1017.86 1018.42 1019.09 1019.74 1020.47 1020.99 1021.63 1021.93 1022.45 1022.66 1022.85 1022.77 1022.49 1022.05 1021.85 1021.57 1021.47 1021.39 1021.29 1021.14 1021.01 1020.70 1020.41 1020.25 1020.09 1019.91 1019.72 1019.55 1019.50 1019.66 1019.77 1019.92 1019.89 1019.83
1012.07 1012.98 1013.99 1014.78 1015.46 1016.14 1016.63 1017.30 1017.88 1018.30 1018.84 1019.49 1020.11 1020.69 1021.19 1021.59 1022.03 1022.34 1022.50 1022.57 1022.26 1021.97 1021.54 1021.22 1020.99 1020.82 1020.82 1020.84 1020.83 1020.64 1020.49 1020.09 1019.70 1019.47 1019.22 1019.08 1019.08 1019.33 1019.46 1019.55 1019.61 1019.58 1019.28
1012.85 1013.82 1014.72 1015.47 1016.02 1016.71 1017.14 1017.71 1018.25 1018.77 1019.33 1019.93 1020.45 1020.92 1021.27 1021.62 1021.90 1022.17 1022.56 1022.46 1022.08 1021.46 1020.73 1020.31 1020.01 1019.80 1019.70 1019.72 1019.73 1019.93 1020.17 1020.22 1019.97 1019.63 1019.25 1019.17 1018.98 1019.39 1019.64 1019.60 1019.58 1019.29 1018.95
1013.36 1014.14 1014.75 1015.38 1016.08 1016.54 1017.19 1017.88 1018.48 1019.04 1019.62 1020.16 1020.67 1021.02 1021.35 1021.51 1021.64 1021.89 1022.16 1022.09 1021.31 1020.75 1020.33 1019.95 1019.54 1019.16 1019.00 1018.82 1018.58 1018.70 1018.79 1018.90 1019.29 1019.41 1019.33 1019.33 1019.39 1019.36 1019.36 1019.44 1019.28 1019.16 1018.89
1013.37 1014.08 1014.85 1015.52 1016.09 1016.63 1017.20 1017.73 1018.67 1019.43 1019.91 1020.28 1020.60 1020.81 1020.88 1020.79 1021.04 1021.52 1021.85 1021.64 1021.00 1020.44 1020.00 1019.60 1019.17 1018.80 1018.59 1018.39 1018.15 1017.86 1017.78 1017.87 1018.11 1018.58 1018.77 1018.64 1018.87 1018.97 1018.99 1019.01 1019.20 1019.13 1019.05
1013.87 1014.56 1015.21 1015.75 1016.37 1016.95 1017.65 1018.42 1018.95 1019.50 1019.81 1019.91 1020.02 1019.85 1019.97 1020.25 1021.03 1021.39 1021.59 1021.24 1020.73 1020.23 1019.84 1019.43 1019.07 1018.65 1018.34 1018.14 1017.96 1017.42 1017.04 1016.61 1016.59 1017.08 1017.36 1017.45 1018.17 1018.72 1019.17 1019.23 1019.15 1019.15 1018.61
1014.18 1014.82 1015.48 1016.06 1016.61 1017.31 1017.98 1018.41 1018.73 1018.66 1018.77 1019.13 1019.45 1019.86 1020.23 1020.54 1021.15 1021.52 1021.68 1021.49 1021.09 1020.60 1020.24 1019.65 1019.30 1018.97 1018.59 1018.34 1018.11 1017.32 1016.56 1016.02 1015.96 1016.02 1016.78 1017.20 1017.52 1017.70 1018.42 1018.74 1018.68 1018.55 1018.28
1014.66 1015.34 1016.02 1016.77 1017.16 1017.25 1017.56 1017.98 1018.32 1018.59 1019.09 1019.62 1019.98 1020.17 1020.50 1020.74 1021.08 1021.58 1021.86 1021.87 1021.65 1021.39 1020.69 1019.94 1019.41 1018.98 1018.55 1018.17 1017.95 1017.56 1016.88 1016.35 1015.58 1015.42 1015.66 1015.83 1016.13 1016.54 1016.89 1017.36 1017.76 1017.85 1017.68
1015.19 1015.91 1016.40 1016.77 1017.18 1017.52 1017.81 1018.27 1018.56 1018.76 1019.24 1019.69 1020.19 1020.43 1020.59 1020.92 1021.35 1021.94 1022.26 1022.51 1022.34 1021.66 1020.88 1020.23 1019.45 1018.86 1018.43 1017.82 1017.28 1016.61 1016.28 1016.04 1015.51 1014.96 1014.99 1015.03 1015.20 1015.51 1015.78 1015.85 1016.34 1016.82 1016.86
1015.65 1016.29 1016.89 1017.40 1017.75 1017.99 1018.13 1018.55 1018.76 1019.27 1019.88 1020.27 1020.48 1020.70 1020.81 1021.23 1021.55 1021.79 1022.12 1022.44 1022.16 1021.64 1020.91 1020.06 1019.25 1018.29 1017.37 1016.41 1015.75 1015.29 1015.37 1015.17 1014.78 1014.37 1013.85 1013.87 1014.20 1014.37 1014.68 1015.13 1015.44 1015.74 1016.04
1016.10 1016.81 1017.42 1017.72 1018.15 1018.50 1018.74 1019.16 1019.43 1020.14 1020.61 1020.93 1021.09 1021.30 1021.54 1021.94 1021.98 1022.59 1022.82 1022.38 1021.87 1021.37 1020.65 1019.68 1018.72 1017.61 1016.57 1015.80 1015.01 1014.27 1013.88 1013.79 1013.67 1013.43 1013.11 1013.08 1013.29 1013.46 1013.90 1014.48 1014.89 1015.37 1015.59
1016.78 1017.42 1018.01 1018.49 1018.71 1019.00 1019.54 1020.22 1020.73 1021.70 1022.09 1022.06 1021.95 1022.23 1022.58 1022.84 1023.12 1023.84 1023.50 1022.72 1022.16 1021.57 1020.63 1019.36 1017.88 1016.87 1015.99 1015.07 1014.16 1013.21 1012.63 1012.51 1012.68 1012.56 1012.33 1012.33 1012.72 1013.05 1013.42 1013.94 1014.41 1014.80 1014.93
1017.41 1018.20 1018.89 1019.22 1019.63 1019.75 1019.99 1020.93 1021.71 1022.05 1022.64 1023.01 1023.29 1023.41 1023.44 1023.65 1023.91 1023.80 1023.23 1022.57 1021.98 1021.03 1020.10 1018.85 1018.32 1017.66 1016.81 1015.94 1014.77 1013.65 1012.02 1011.49 1011.66 1011.76 1011.84 1011.97 1012.13 1012.48 1012.87 1013.42 1013.81 1014.17 1014.23
1018.12 1018.94 1019.70 1019.81 1020.09 1020.48 1020.79 1021.00 1021.08 1022.35 1022.55 1022.78 1023.10 1023.34 1023.48 1023.87 1023.77 1023.45 1022.79 1022.17 1021.30 1020.61 1019.72 1019.09 1018.74 1018.21 1017.49 1016.65 1015.70 1014.38 1012.51 1011.04 1011.25 1011.49 1011.56 1011.61 1011.72 1012.05 1012.42 1012.69 1013.07 1013.41 1013.65
1019.54 1020.08 1019.99 1020.34 1020.75 1021.07 1021.28 1021.57 1021.72 1022.00 1022.18 1022.20 1022.61 1022.76 1023.01 1023.37 1023.46 1022.99 1022.35 1021.59 1020.50 1020.20 1019.84 1019.42 1018.93 1018.55 1017.92 1017.17 1016.32 1015.21 1013.77 1012.36 1011.35 1011.42 1011.35 1011.33 1011.43 1011.62 1011.88 1012.14 1012.44 1012.74 1013.07
1019.97 1020.41 1020.90 1021.42 1021.89 1022.17 1022.10 1022.10 1022.22 1022.31 1022.30 1022.34 1022.24 1022.23 1022.47 1023.06 1023.02 1022.26 1021.87 1021.38 1020.92 1020.53 1020.18 1019.83 1019.35 1018.89 1018.49 1017.82 1016.98 1016.16 1015.09 1013.85 1012.58 1011.42 1011.23 1011.09 1011.14 1011.21 1011.36 1011.60 1011.91 1012.31 1012.57
1021.49 1022.06 1021.98 1022.01 1022.22 1022.45 1022.50 1022.56 1022.54 1022.62 1022.56 1022.45 1022.40 1022.34 1022.63 1023.26 1022.80 1021.87 1021.63 1021.46 1021.19 1020.81 1020.60 1020.23 1019.77 1019.41 1019.05 1018.32 1017.45 1016.68 1015.79 1014.63 1013.55 1012.36 1011.04 1010.90 1010.81 1010.87 1010.95 1011.07 1011.49 1011.77 1012.01
1021.47 1022.28 1022.84 1022.47 1022.74 1022.97 1022.96 1023.04 1023.07 1023.05 1022.94 1022.78 1022.72 1022.81 1023.70 1023.58 1022.87 1022.04 1021.79 1021.50 1021.32 1021.12 1020.88 1020.55 1020.15 1019.64 1019.19 1018.63 1017.85 1017.11 1016.60 1015.54 1014.50 1013.33 1012.17 1011.08 1010.54 1010.50 1010.47 1010.69 1011.07 1011.36 1011.63
1022.67 1022.84 1022.86 1023.10 1023.39 1023.52 1023.68 1023.63 1023.54 1023.40 1023.19 1023.05 1022.98 1022.93 1023.16 1023.09 1022.47 1022.25 1022.01 1021.73 1021.65 1021.38 1020.92 1020.59 1020.29 1019.89 1019.33 1018.86 1018.23 1017.50 1016.93 1016.18 1015.26 1014.23 1013.46 1012.77 1011.80 1010.43 1010.22 1010.38 1010.68 1010.91 1011.18
1023.25 1023.33 1023.33 1023.57 1023.86 1024.12 1023.81 1023.73 1023.73 1023.58 1023.51 1023.45 1023.32 1023.12 1022.94 1022.75 1022.64 1022.47 1022.20 1021.98 1021.76 1021.47 1021.22 1020.81 1020.37 1019.87 1019.49 1019.02 1018.42 1017.91 1017.11 1016.53 1015.91 1015.04 1014.48 1013.57 1012.54 1011.60 1010.15 1010.10 1010.31 1010.54 1010.81
1023.76 1023.77 1023.78 1023.85 1023.97 1024.23 1023.97 1024.04 1023.89 1023.86 1023.81 1023.58 1023.46 1023.27 1023.06 1022.94 1022.76 1022.54 1022.25 1021.98 1021.80 1021.56 1021.24 1020.81 1020.35 1019.97 1019.36 1018.68 1018.20 1017.67 1017.17 1016.64 1016.13 1015.42 1015.07 1014.16 1013.03 1011.87 1010.88 1009.85 1009.91 1010.15 1010.44
1023.92 1023.94 1024.05 1024.07 1024.00 1024.00 1024.08 1023.94 1023.94 1023.88 1023.80 1023.71 1023.53 1023.38 1023.17 1022.98 1022.75 1022.49 1022.24 1021.98 1021.85 1021.46 1020.98 1020.79 1020.21 1019.41 1018.78 1018.33 1017.80 1017.29 1016.63 1016.07 1015.76 1015.56 1014.98 1013.91 1012.94 1012.08 1011.07 1009.89 1009.48 1009.79 1010.19
1024.06 1024.17 1024.25 1024.19 1024.11 1024.11 1024.14 1024.17 1024.12 1024.07 1024.03 1023.91 1023.87 1023.69 1023.39 1023.14 1022.91 1022.62 1022.29 1022.05 1021.65 1021.34 1021.07 1020.17 1019.58 1018.98 1018.37 1017.69 1016.88 1016.26 1015.92 1015.65 1015.36 1014.95 1014.35 1013.46 1012.59 1011.64 1010.67 1009.41 1009.00 1009.26 1009.70
Wind_Speed
16 15 12 9 9 7 7 6 8 10 10 10 9 9 8 10 8 7 7 6 5 5 7 11 14 12 8 8 8 8 9 9 11 10 10 10 11 11 10 10 10 11 10
12 11 11 9 7 6 6 5 3 4 6 9 10 9 11 10 8 10 7 4 5 7 11 13 12 9 10 11 9 11 10 11 10 14 11 10 12 11 11 11 10 11 11
9 8 10 7 6 7 8 8 9 9 9 9 9 7 7 8 9 7 7 7 9 11 12 12 11 11 11 9 11 11 10 10 10 10 11 9 9 9 10 10 10 10 11
11 11 10 9 8 8 8 8 8 8 9 9 9 10 9 8 7 7 7 8 11 12 11 12 11 11 14 13 12 13 12 11 11 10 10 11 10 10 8 9 10 9 9
11 11 10 9 9 9 8 8 8 8 9 9 9 8 7 6 5 5 6 9 8 11 12 12 13 15 15 12 11 12 14 12 10 10 11 10 10 9 11 8 9 11 9
12 12 10 10 11 10 11 11 10 10 10 10 9 6 5 3 6 8 8 7 11 13 14 13 14 15 15 18 17 16 15 15 16 12 11 12 13 11 11 10 9 9 10
13 13 13 13 12 13 13 12 11 11 9 7 6 4 4 6 8 10 9 10 11 12 13 14 14 13 12 15 15 20 18 18 15 16 15 15 14 12 13 12 12 10 11
13 14 13 13 13 12 12 11 10 7 7 6 5 5 7 8 10 8 6 9 11 14 15 16 16 16 15 15 16 16 15 15 15 12 15 15 13 12 11 11 10 11 10
14 13 13 12 12 11 11 9 7 6 5 5 7 6 3 4 8 1 5 9 11 14 14 16 17 17 18 16 15 16 17 17 13 18 21 15 8 6 4 7 8 9 10
13 13 12 10 10 8 7 6 7 7 4 1 2 3 4 5 13 10 9 7 11 10 14 16 17 18 16 14 14 16 18 17 16 16 7 12 11 11 13 11 9 10 10
12 11 10 9 8 7 6 5 4 4 2 2 1 3 5 5 5 11 11 8 9 10 11 11 11 16 17 17 14 14 16 18 17 13 10 11 9 10 9 11 12 10 9
11 10 9 8 5 5 6 5 3 2 1 1 2 3 3 4 7 12 12 12 14 11 12 11 14 23 28 28 22 22 19 15 12 10 7 9 8 7 10 9 12 12 10
10 10 9 7 6 5 4 4 2 2 2 2 2 3 4 4 6 9 14 16 16 12 12 17 26 28 29 22 22 21 17 10 10 10 10 9 8 10 10 9 9 10 10
11 9 7 5 5 4 3 2 3 3 3 2 3 4 4 6 6 9 9 11 14 13 15 14 19 22 22 20 18 15 11 9 9 10 10 9 10 8 8 8 7 7 8
9 8 6 5 3 4 5 5 3 6 5 4 4 4 4 5 7 11 13 11 11 14 16 12 11 11 11 11 13 12 10 9 8 9 8 4 5 7 8 7 7 7 9
9 6 4 4 3 2 2 6 7 8 6 7 6 4 4 6 11 16 17 17 21 19 12 9 10 10 11 12 12 15 12 10 7 6 7 8 7 7 8 7 8 8 8
8 8 5 3 3 3 1 1 2 5 7 9 7 3 2 7 12 17 17 18 19 13 9 9 9 10 11 12 12 12 16 7 4 3 5 6 6 6 7 7 8 8 8
8 6 4 3 3 1 2 3 3 3 4 3 9 1 2 8 15 16 15 17 8 9 9 10 10 10 10 12 12 13 13 13 2 4 6 6 6 7 7 7 8 7 8
5 5 4 3 3 2 2 2 3 4 4 5 5 5 1 11 16 14 10 8 9 9 9 10 10 10 11 11 11 12 12 12 14 5 6 6 5 6 8 8 7 9 9
7 6 4 2 1 1 2 3 3 4 5 5 6 6 7 9 9 8 8 8 8 9 9 11 11 10 11 11 11 10 11 12 13 11 5 5 5 7 8 7 7 8 8
4 5 3 0 1 2 3 3 4 5 5 5 6 4 3 7 9 8 8 8 8 9 10 10 10 10 10 10 11 10 10 11 11 12 10 10 4 7 7 6 7 7 7
3 2 2 2 3 2 3 4 4 5 5 6 6 7 6 7 7 8 9 9 9 10 9 10 10 10 10 11 11 10 11 11 11 11 11 11 11 8 6 6 7 8 7
3 2 1 1 2 2 4 4 5 5 6 6 7 7 7 7 7 9 9 9 10 9 10 10 10 10 10 10 10 11 11 10 10 11 11 12 11 10 6 7 8 6 7
2 1 2 2 2 4 4 4 5 5 6 7 7 7 8 8 8 10 9 9 10 10 10 10 10 15 13 12 10 10 11 10 10 10 14 12 11 13 12 7 7 9 7
2 3 3 4 4 4 5 6 6 6 7 7 7 8 8 8 9 9 10 9 9 10 11 12 10 14 15 18 17 19 17 15 12 13 11 13 14 16 13 9 8 8 9
3 4 4 4 5 5 5 6 7 7 7 7 8 8 9 9 9 10 10 10 9 11 15 11 13 19 21 16 18 18 16 17 16 17 13 12 12 11 10 13 11 8 10
Wind_Direction
207 191 184 188 195 220 211 213 220 216 203 188 162 127 121 117 143 158 151 138 170 193 229 240 247 247 259 264 262 258 262 267 274 279 284 289 284 280 273 254 262 279 284
202 195 159 181 182 199 201 200 184 91 99 126 129 133 144 151 150 136 139 168 217 241 246 252 250 252 251 253 257 264 263 268 273 279 280 283 273 286 282 280 275 279 277
180 146 124 132 155 93 91 95 102 110 112 116 128 142 138 129 143 149 168 195 226 244 252 255 251 246 252 255 258 262 264 264 263 266 274 276 279 277 273 279 269 264 271
89 94 94 90 91 94 100 105 111 120 130 140 125 125 138 146 145 175 198 232 248 251 260 260 261 267 265 264 262 264 264 262 261 265 266 269 274 280 281 276 273 275 274
100 97 94 94 96 104 111 118 114 116 114 117 121 121 129 149 176 202 228 251 272 278 267 262 254 252 257 264 271 276 287 285 275 272 272 278 286 301 290 290 285 278 293
102 103 108 105 105 112 110 111 114 112 119 124 129 135 132 169 208 227 246 270 268 267 269 275 268 255 240 230 228 237 249 266 279 283 286 285 279 279 279 283 287 285 286
115 121 122 123 119 121 119 116 114 124 129 120 117 133 190 232 222 228 236 267 273 276 279 283 284 281 281 280 247 230 232 233 232 253 262 269 285 282 283 288 280 282 284
120 118 119 118 117 120 124 116 113 120 129 142 173 214 245 250 215 217 215 278 280 279 281 282 282 282 280 282 281 281 263 247 232 235 246 256 260 272 271 271 288 292 290
119 120 120 118 119 118 117 127 128 144 177 198 215 218 270 322 129 121 322 306 298 298 298 296 295 295 296 302 293 283 278 272 256 214 226 226 198 199 243 281 271 277 273
120 120 119 121 120 117 126 152 178 187 160 97 351 344 53 296 82 60 15 324 315 311 308 307 311 314 321 322 314 299 282 275 271 264 242 244 227 231 207 235 252 251 261
121 115 112 115 144 145 124 115 124 111 77 77 281 341 327 6 27 59 35 343 333 326 311 306 302 303 300 308 310 300 293 300 280 269 249 233 225 229 229 214 223 228 242
121 120 128 116 115 121 127 122 137 99 44 338 14 323 335 344 39 61 33 9 341 317 307 305 304 309 304 297 291 283 280 279 270 260 230 228 218 218 236 232 209 226 242
124 115 115 117 111 96 100 80 75 37 15 30 324 331 320 358 327 69 9 344 318 312 304 303 304 298 294 282 271 265 262 266 262 249 239 214 210 220 225 232 231 238 246
127 124 117 111 105 90 104 65 68 39 20 353 339 328 350 332 337 4 337 325 323 318 318 308 296 286 276 269 273 270 255 254 249 250 236 217 225 212 219 216 217 223 240
127 121 108 102 94 120 86 35 73 70 29 352 20 4 351 324 8 340 324 320 323 313 304 296 305 323 324 323 310 287 277 248 243 243 228 207 219 222 215 211 213 225 234
126 106 86 108 95 39 80 145 84 101 118 112 79 31 334 350 339 328 320 321 318 311 306 318 325 325 325 328 322 325 287 269 232 223 219 225 224 221 212 205 212 219 231
115 116 116 114 90 61 27 346 304 176 182 172 164 166 306 322 328 325 322 323 308 322 325 329 325 327 326 325 326 318 319 277 225 228 245 240 242 220 216 215 210 216 220
93 38 107 96 84 67 34 352 325 321 306 270 189 213 10 334 333 317 323 316 328 335 330 329 326 328 326 327 329 329 328 332 272 240 233 244 242 225 224 218 214 209 218
92 83 75 83 66 37 346 322 309 298 301 304 304 284 341 5 322 303 318 329 328 324 328 326 327 327 326 325 326 327 328 325 324 283 265 247 239 221 228 216 208 214 218
86 62 33 86 97 350 326 316 307 302 302 301 306 317 337 343 324 321 330 328 322 321 325 322 323 324 322 318 322 327 328 325 327 331 268 243 240 232 234 205 204 209 206
72 97 26 359 1 348 334 310 310 297 300 304 307 350 32 322 298 316 323 318 324 321 317 318 315 317 316 317 318 323 324 320 323 326 334 333 259 252 220 200 206 206 199
68 58 43 30 321 329 349 305 305 300 302 305 310 312 315 281 309 318 315 321 324 312 316 317 314 312 313 315 316 316 317 316 320 326 335 330 328 295 220 195 207 200 199
68 43 36 350 324 305 262 299 299 301 311 311 308 308 311 312 317 311 316 318 315 319 317 314 309 307 312 306 311 309 307 312 313 322 325 317 314 315 252 205 204 197 193
43 17 337 312 307 307 295 312 298 298 298 301 307 308 311 314 313 313 312 316 317 315 313 308 312 309 301 301 305 304 306 303 303 309 314 307 300 298 307 214 199 199 197
359 334 310 303 303 307 300 292 309 305 308 307 307 311 312 313 311 314 315 318 318 306 316 315 298 299 307 307 303 299 291 295 304 308 294 291 296 295 285 268 196 189 192
331 311 305 304 299 299 303 305 305 308 308 309 316 308 311 312 314 312 318 313 309 323 308 302 308 307 309 302 296 302 312 309 300 290 287 290 286 282 279 275 200 188 182